This is the latest recevied weather packets stored in our database for station/object KD9JOU-13. If no packets are shown the sender has not sent any weather packets the latest 1 day(s).
| Time | Temp. | Humidity | Pressure | Rain* | Wind** | Luminosity | Snow |
|---|---|---|---|---|---|---|---|
| 1778048611 | 7.78° C | 95% | 1011.5 hPa | - | 0.45 m/s, 337° | - | - |
| 1778048311 | 7.78° C | 94% | 1011.6 hPa | - | 0.89 m/s, 327° | - | - |
| 1778048011 | 7.78° C | 94% | 1011.5 hPa | - | 0 m/s | - | - |
| 1778047711 | 8.33° C | 94% | 1011.7 hPa | - | 0.45 m/s, 321° | - | - |
| 1778047411 | 8.33° C | 93% | 1012.1 hPa | - | 0.89 m/s, 42° | - | - |
| 1778047113 | 8.33° C | 93% | 1012.3 hPa | - | 0.45 m/s, 43° | - | - |
| 1778046811 | 8.33° C | 93% | 1012.3 hPa | - | 0.45 m/s, 348° | - | - |
| 1778046511 | 8.33° C | 93% | 1012 hPa | - | 1.34 m/s, 287° | - | - |
| 1778046211 | 8.89° C | 94% | 1012.1 hPa | - | 0.89 m/s, 9° | - | - |
| 1778045911 | 8.89° C | 94% | 1011.8 hPa | - | 1.79 m/s, 308° | - | - |
| 1778045612 | 9.44° C | 95% | 1011.5 hPa | - | 1.34 m/s, 313° | - | - |
| 1778045311 | 9.44° C | 95% | 1011.3 hPa | - | 0.89 m/s, 314° | - | - |
| 1778045011 | 9.44° C | 95% | 1011.2 hPa | - | 0 m/s | - | - |
| 1778044711 | 9.44° C | 95% | 1011.6 hPa | - | 0.45 m/s, 336° | - | - |
| 1778044412 | 9.44° C | 95% | 1011.6 hPa | - | 0 m/s | - | - |
| 1778044112 | 9.44° C | 95% | 1011.8 hPa | - | 0.45 m/s, 316° | - | - |
| 1778043812 | 9.44° C | 95% | 1011.9 hPa | - | 0 m/s | - | - |
| 1778043511 | 9.44° C | 95% | 1011.9 hPa | - | 0.89 m/s, 334° | - | - |
| 1778043211 | 9.44° C | 95% | 1011.7 hPa | - | 0.89 m/s, 319° | - | - |
| 1778042911 | 9.44° C | 95% | 1011.3 hPa | - | 0.45 m/s, 303° | - | - |
| 1778042612 | 9.44° C | 95% | 1011.1 hPa | - | 0 m/s | - | - |
| 1778042023 | 9.44° C | 95% | 1011.1 hPa | - | 0.89 m/s, 327° | - | - |
| 1778041711 | 9.44° C | 95% | 1011.3 hPa | - | 0.45 m/s, 330° | - | - |
| 1778041412 | 9.44° C | 95% | 1011 hPa | - | 0.45 m/s, 319° | - | - |
| 1778041111 | 9.44° C | 95% | 1011.2 hPa | - | 0 m/s | - | - |
* Rain since midnight (hover to see other rain measurements)
** Current wind speed in m/s (hover to see current wind gust speed)